Weather in Flying Fish Cove

Australia     10°25′05″S   105°40′24″E
temp.,
°C
wind,
m/s
gust,
m/s
humid.,
%
clouds,
%
prec.,
mm/h
press.,
hPa
HPBL,
m
18 april, sun
sun1801:00+28ese887892 0.2 1013900
04:00+28ese897917 0.5 1012844
07:00+28ese787726 1.4 1014874
10:00+28se787721 0.4 1014866
13:00+27ese777826 1.4 1012803
16:00+27ese788015 0.6 1011803
19:00+28ese787911 0.6 1013856
22:00+28ese787814 1.0 1014853
19 april, mon
mon1901:00+28ese787765 1.8 1012883
04:00+28ese897741 0.6 1011945
07:00+28ese910766 0.7 10131050
10:00+28ese9107667 0.1 10131036
13:00+28e897618 0.5 1011996
16:00+28ese787516 0.7 1010951
19:00+28ese8975100 0.9 10111009
22:00+28ese897468 0.0 10121020
20 april, tue
tue2001:00+28ese787153 0.1 10111180
04:00+28ese897070 0.0 10111120
07:00+28ese89725 0.1 10121187
10:00+28ese89725 0.0 10131146
13:00+28e777178 0.0 10101117
16:00+28ese777332 0.1 10101016
19:00+28ese787456 0.9 1012997
22:00+28ese787410 0.3 1013916
21 april, wed
wed2101:00+28ese797385 0.4 10111128
04:00+28ese787213 0.0 10111142
07:00+28ese787542 0.2 1012972
10:00+28e887375 0.3 10131080
13:00+28e787033 0.3 10111086
16:00+28e7771100 0.0 10101165
19:00+28e787090 0.0 10121119
22:00+28ese787134 0.0 10131096
22 april, thu
thu2201:00+28e77715 0.0 10121096
04:00+28e67765 0.3 1011794
07:00+27e78763 1.4 1012772
10:00+28e787111 0.6 10121125
13:00+28e676599 0.6 10101111
16:00+28e566711 0.0 10101171
19:00+28e666935 0.0 1011996
22:00+28e667029 0.0 10131018